Japanese version Home page |
Updated on May 12, 1997 |
Profile
|
Orbital ElementsT 1996 Aug. 22.13428 TT Marsden q 0.0046014 (2000.0) P Q Peri. 47.04646 +0.18174301 -0.90255453 Node 321.66763 -0.98032402 -0.13520168 e 1.0 Incl. 140.99753 +0.07703443 +0.40879803 >From 15 observations 1996 Aug. 20-21.
|
The orbital elements are calculated by Dr. Brian G. Marsden and printed on
M.P.E.C. 1997-J06.
|